EST,Max TemperatureF,Mean TemperatureF,Min TemperatureF,Max Dew PointF,MeanDew PointF,Min DewpointF,Max Humidity, Mean Humidity, Min Humidity, Max Sea Level PressureIn, Mean Sea Level PressureIn, Min Sea Level PressureIn, Max VisibilityMiles, Mean VisibilityMiles, Min VisibilityMiles, Max Wind SpeedMPH, Mean Wind SpeedMPH, Max Gust SpeedMPH,PrecipitationIn, CloudCover, Events, WindDirDegrees
2013-1-1,48,45,42,35,31,28,65,59,53,30.02,29.99,29.91,10,10,10,10,4,14,T,4,Rain,266
2013-1-2,43,37,30,29,21,16,64,52,40,30.23,30.11,30.00,10,10,6,15,6,18,T,3,Snow,345
2013-1-3,38,32,25,21,17,14,81,59,37,30.27,30.22,30.18,10,10,10,10,3,13,0.00,0,,304
2013-1-4,45,34,22,26,21,18,81,59,37,30.23,30.18,30.12,10,10,7,17,6,22,0.00,0,,253
2013-1-5,47,39,31,27,22,19,78,58,37,30.38,30.29,30.17,10,10,10,18,5,26,0.00,0,,290
2013-1-6,53,43,33,35,30,24,85,62,38,30.23,30.13,30.05,10,10,6,9,3,13,T,4,,220
2013-1-7,53,41,28,33,27,23,79,59,38,30.47,30.35,30.14,10,10,10,17,5,23,0.00,1,,317
2013-1-8,57,41,25,36,29,21,84,60,35,30.49,30.43,30.39,10,10,8,15,3,21,0.00,3,,217
2013-1-9,66,50,34,47,41,30,89,71,52,30.42,30.35,30.26,10,10,7,20,5,23,0.00,1,,225
2013-1-10,55,45,35,35,29,25,76,54,32,30.57,30.50,30.38,10,10,10,15,5,21,0.00,0,,311
2013-1-11,57,45,32,54,43,28,93,78,62,30.51,30.26,30.10,10,8,2,15,5,18,0.09,6,Rain,167
2013-1-12,63,54,45,49,45,43,93,79,64,30.17,30.15,30.10,10,2,0,15,4,18,0.00,6,Fog,290
2013-1-13,61,53,44,57,48,41,93,87,80,30.17,30.10,30.03,10,2,0,12,6,15,0.00,7,Fog,160
2013-1-14,67,57,47,59,53,42,90,82,74,30.25,30.13,30.02,10,10,5,15,8,22,0.25,6,Rain,286
2013-1-15,47,44,41,43,39,37,89,86,82,30.31,30.25,30.14,10,5,2,14,7,20,0.76,8,Rain,31
2013-1-16,47,43,39,43,39,36,92,87,82,30.10,30.00,29.89,10,6,2,20,6,24,0.36,8,Rain,278
2013-1-17,46,40,34,43,37,30,92,82,71,30.14,30.07,30.00,10,5,1,13,4,16,0.87,8,Rain-Snow,336
2013-1-18,40,33,26,32,25,15,89,63,37,30.54,30.33,30.05,10,7,1,21,6,28,0.07,2,Snow,313
2013-1-19,52,40,27,32,26,18,76,57,38,30.49,30.30,30.06,10,10,10,20,10,25,0.00,0,,194
2013-1-20,60,50,39,32,27,14,58,45,31,30.07,29.95,29.85,10,10,10,24,12,31,0.00,0,,249
2013-1-21,48,37,26,32,24,15,82,58,34,30.13,29.98,29.77,10,10,10,31,7,37,0.00,1,,71
2013-1-22,32,26,19,22,3,-4,75,52,29,30.30,30.15,29.92,10,10,10,25,12,35,0.00,0,,312
2013-1-23,29,23,16,11,3,0,59,44,29,30.35,30.28,30.19,10,10,10,20,7,25,0.00,3,,312
2013-1-24,28,19,10,18,10,1,77,57,37,30.52,30.26,30.07,10,6,1,26,10,31,0.04,5,Snow,1
2013-1-25,27,18,8,20,14,3,88,65,42,30.51,30.24,30.08,10,5,0,10,1,18,0.14,5,Fog-Snow,196
2013-1-26,36,26,15,18,15,11,84,64,44,30.44,30.22,30.08,10,8,1,21,7,28,0.00,3,,322
2013-1-27,39,27,15,19,14,9,84,62,40,30.61,30.54,30.45,10,9,6,10,3,31,0.00,0,,302
2013-1-28,49,36,22,41,30,17,81,71,61,30.55,30.33,30.10,10,7,2,18,8,24,0.10,5,Rain,198
2013-1-29,72,58,43,50,44,39,89,68,47,30.16,30.10,30.07,10,9,5,14,5,17,0.00,0,,188
2013-1-30,75,64,52,59,56,47,86,70,54,30.04,29.80,29.45,10,9,6,32,17,45,0.00,4,,184
2013-1-31,67,50,32,61,38,15,84,57,29,29.95,29.52,29.25,10,8,2,37,16,58,0.32,6,Rain,252